Location: Newark
(35.2161°N, 26.1013°E)
Time: 15:08:24
(UTC+00:00)

BEESAT 2 - Visible Passes

Search period start: 21 January 2020 00:00
Search period end: 31 January 2020 00:00
Orbit: 493 x 535 km, 64.9° (Epoch: 21 January)

Date Brightness Start Highest point End Pass type
(mag) Time Alt. Az. Time Alt. Az. Time Alt. Az.
21 Jan ? 03:45:44 10° NE 03:46:15 10° NE 03:46:46 10° NE visible
22 Jan ? 03:29:20 10° NE 03:29:57 10° NE 03:30:34 10° NE visible
23 Jan ? 03:12:58 10° NE 03:13:39 10° NE 03:14:22 10° ENE visible
23 Jan ? 04:47:44 10° NNW 04:51:44 71° WSW 04:55:39 10° SSE visible
24 Jan ? 02:56:36 10° NE 02:57:22 10° NE 02:58:08 10° ENE visible
24 Jan ? 04:31:26 10° NW 04:35:26 71° WSW 04:39:21 10° SSE visible
25 Jan ? 02:40:45 10° NE 02:41:04 11° NE 02:41:54 10° ENE visible
25 Jan ? 04:15:44 14° NW 04:19:07 70° WSW 04:23:03 10° SSE visible
26 Jan ? 02:25:36 10° ENE 02:25:36 10° ENE 02:25:40 10° ENE visible
26 Jan ? 04:00:36 25° NW 04:02:49 69° WSW 04:06:45 10° SSE visible
27 Jan ? 03:45:34 48° NW 03:46:31 68° WSW 03:50:26 10° SSE visible
27 Jan ? 17:29:20 10° S 17:30:41 19° S 17:30:41 19° S visible
28 Jan ? 03:30:39 61° SSW 03:30:39 61° SSW 03:34:08 10° SSE visible
28 Jan ? 17:13:01 10° S 17:15:59 36° SE 17:15:59 36° SE visible
29 Jan ? 03:15:50 28° SSE 03:15:50 28° SSE 03:17:49 10° SSE visible
29 Jan ? 16:56:42 10° S 17:00:24 41° ESE 17:01:14 36° E visible
29 Jan ? 18:35:47 10° W 18:36:15 12° W 18:36:15 12° W visible
30 Jan ? 03:01:06 12° SSE 03:01:06 12° SSE 03:01:30 10° SSE visible
30 Jan ? 16:40:23 10° S 16:44:05 41° ESE 16:46:23 20° NE visible
30 Jan ? 18:19:29 10° W 18:21:25 15° WNW 18:21:25 15° WNW visible
